Ping Pong Board
บอร์ด: คนไทยเก่งปิงปอง
บอร์ด: การแข่งขันทั่วไทย
บอร์ด: พูดคุยทั่วไป-สินค้ามือ 2
บอร์ด: สินค้ามือสอง On FB
บอร์ด: แปลงสินทรัพย์เป็นทุน
บอร์ด: ขายสินค้าใหม่ มือ 1
บอร์ด: รีวิวอุปกรณ์
บอร์ด : รีวิวอุปกรณ์ On FB
บอร์ด: เทคนิคการเล่นปิงปอง
บอร์ด: การเมืองเรื่องปิงปอง
บอร์ด: บริจาคอุปกรณ์เหลือใช้
บอร์ด: ปรึกษาอาการบาดเจ็บ
บอร์ด: ปิงปองทุกจังหวัด
บอร์ด: ชมรมคนเล่นยางเม็ด
บอร์ด: จับแบบไม้จีน ไม้ญี่ปุ่น
บอร์ด: สนทนาภาษาปิงปอง
บอร์ด: นัดกันไปเรียน ไปเล่น
บอร์ด: Chat Online
บอร์ด: เล่นเกมส์ปิงปอง
บอร์ด: เกมส์ออนไลน์
สำหรับสมาชิก
นามปากกา
รหัสผ่าน
ลืมรหัสผ่าน
สมัครสมาชิกใช้งาน
กระทู้โดนใจชาวปิงปอง
สถานที่รับสอนปิงปอง
บอร์ดซื้อขายสินค้ามือสอง และพูดคุยแลกเปลี่ยนความคิดเห็นกัน
ตั้งกระทู้-เฉพาะกีฬาปิงปอง
ค้นหาข้อมูล :
ค้นหาจาก :
@เรื่อง.........FromAnswer-ReaderLast Answer
ระหว่างรอพี่สันติ ขอขายSchlager off+หรือแลกไรก็ว่ามาครับ tewza8/11533/4/2555 22:07:25
อยากได้ไม้รุ่นเก่า ปีกผีเสื้อ ตามรายการ IOLITE ST,Timo Boll Spirit, Viscaria Light, Schlager Light, Gergely, Fukuhara Ai Special เอ๋ BL44/32843/4/2555 20:16:15
รับ Ai Fukuhara Special ใครมีเสนอราคามา golf271/7673/4/2555 20:10:51
ซื้อไม้ pingpong_boy1/9163/4/2555 20:08:58
รับไม้fukuhara ai special สภาพดี poloTAO4/11193/4/2555 20:04:34
รับไม้ Fukuhara Ai Special ครับ เบาเบา5/8533/4/2555 19:58:49
รับไม้ FUKUHARA ด้าม FL ลงรูปด้วยคับขอบคุณคับ pingpong_boy1/7463/4/2555 19:57:12
ขอเชิญทุกท่าน รวมพลังให้กำลังใจกับนักปิงปองและประชาชนชาวหาดใหญ่ และ ยะลา ร่วมกันครับ Webmaster8/6983/4/2555 19:44:11
ขายไม้ stiga allround 2 ไม้ 1600 เด็กดี4/7903/4/2555 18:31:56
ตั้งรับไม้มาทดสอบคุณภาพ เพอสัน5/9773/4/2555 18:07:40
รับ Butterfly VISCARIA satanapat_amp5/8973/4/2555 17:27:14
มี Butterfly TENERGY 05 FX 2.1 แดงมาแลก 64 แดงหรือขาย satanapat_amp11/16933/4/2555 17:24:03
รับไม้ Timo boll spirit สภาพสวยๆ ให้ราคาดี ิball_instru14/10923/4/2555 17:01:50
รายการชิงแชมป์สโมสร เงาปิงปอง1/8053/4/2555 16:39:59
ขายเป็นคู่ Timo Back5/8273/4/2555 14:48:07
เปิดประมูลไม้ "Butterfiy SARDIUS รุ่น2" เชิญด้านในครับผม cadetlog457/19093/4/2555 13:38:13
ประมูลกันครับ กับไม้ในตำนาน sadius ตูดผีเสื้อ รุ่น 4 สวยๆ ครับ++ พรพจน์27/16963/4/2555 13:16:10
จะทำยังไงดีครับ Tinา๐l3alL2/6313/4/2555 12:44:55
@@ตามหา timo boll ZLC ST@@ น้ำหวาน4/8083/4/2555 11:53:40
ผลการแข่ง Galaxy cup หยวนซียวเจี๋ย+1/7063/4/2555 11:42:55
รับไม้ timoboll spirit , timoboll alc , jun , innerforce zlc ด้าม st GECA0/4933/4/2555 11:09:56
ต้องการซื้อยางเม็ด DAWEI 388D-1 สีดำครับ cskoe1/6333/4/2555 10:17:13
ใครมีอาวุธประจำกายเกิน1อันบ้างครับ เพอสัน8/11623/4/2555 9:50:56
BARACUDA+VEGA ASIA 1450 EMS Rainbow2/6323/4/2555 9:22:16
[ เสื้อปิงปอง ] สวย ๆ งาม ๆ ราคา เบา ๆ มาแล้วครับ lupang84/12433/4/2555 7:48:17
รับไม้ kokutaku B-3003 เอามาแทน TULPE T-7007 a20662/7333/4/2555 7:47:21
ถามเรื่องไม้ธรรมชาติ+ยางจีน เฉิน4/10393/4/2555 1:20:11
ขายยาง Air, DHS, Gambler ,Yasaka $o$ sardius1365/17353/4/2555 0:01:34
ขายไม้ Tenor, Ghost, Hybrid Wood NCT $o$ sardius1380/26513/4/2555 0:01:32
เสื้อปิงปอง สวย ๆ งาม เทพ ๆ มาแล้ว ครับ lupang49/11702/4/2555 23:38:28
ขายไ้ม้ yasaka ยาง dhs ตัวทีมชาติจีนใช้ หั๑ขาย12/19672/4/2555 21:27:13
มีไม้มาแลก...ครับ TTF_THA34/14172/4/2555 21:05:15
S.H3 NEO สภาพ99.99+ซองใส่ไม้STIGA 350 EMS Rainbow15/11402/4/2555 20:08:29
รายชื่อยางที่ ITTF อนุญาตล่าสุด LARC 33 waros8/10072/4/2555 15:32:32
ประกาศขายไม้ Butterfly Viscaria มือสองสภาพดี tooprajaw2/9812/4/2555 15:26:28
ขายยางสภาพดีค่ะ DHS+ZAP+Palio monkeypim0/8252/4/2555 15:22:38
S.Timo Boll Spirit (FL)+TG05+TG05fx และ DHS PG7 +TG64 +Zap นำโชค4/14442/4/2555 14:56:05
ขายไม้พร้อมยาง Fast2/12822/4/2555 14:27:02
ยางเรียบ น้ำหนักเบา ฟองน้ำประมาณ 35 องศา มีรุ่นไหนบ้างครับ Bansak3/8612/4/2555 13:37:50
ว่าด้วย AURUS SOUND tibhar_man5/9262/4/2555 13:26:27
ใครรู้จักนักกีฬาญี่ปุ่นคนนี้บ้าง "Maeda Miyu" รู้สึกว่าจะเป็นเยาวชนทีมชาติ Nobita1/12212/4/2555 13:17:38
ขาย mutsushita pro special fl วสวัส7/10062/4/2555 13:13:02
ช่วยรีวิวไม้ Kinetic CF Light ALL+ ให้หน่อยครับ a20663/6332/4/2555 13:06:15
ขายยาง OMEGA IV Asia ดำและแดง สภาพ 98% ยกคู่ 1200 tonkub1/8432/4/2555 11:25:14
รับ Rakza7 max ดำครับ mugenfd2/6552/4/2555 10:25:10
รับยาง anti abs ไม่เกิน 500 ด่วน เด็กดี0/4832/4/2555 10:22:31
ตามหาไม้ TULPE T-7007 a206616/12102/4/2555 10:05:01
แจ้งข่าวล่วงหน้า..ห้ามเม็ดโมทุกประเภทในงาน Galaxy cup หยวนซียวเจี๋ย+6/9162/4/2555 9:24:07
ฝากขายยาง KTL Red diamond มีแผ่นเดียวครับ หมูกรอบ1/7702/4/2555 8:44:03
ขายไม้ฟุกุฮาร่า ไอ คาร์บอน-ไฟเบอร์ ด้ามตรง + ยางยาซาก้า เอ็กเทน ไม่แพงด่วนๆๆๆ Timo Back9/8182/4/2555 7:38:06
อยากทราบว่าทีมชาติไทย-เยาวชนทีมไทยทั้งชายและหญิงมีใครบ้างครับ Oh Sang Eun3/8912/4/2555 2:30:50
ม.บรู อีกแล้ว! tibhar737421/19551/4/2555 22:22:51
อยากได้ยาง anti abs สีใดก็ได้ซักแผ่น ( a b s) เท่านั้น ไม่เกิน500 ด่วน เด็กดี0/4331/4/2555 22:19:04
จีน ชิง เยอรมัน ตอนนี้ 20.00 ทาง ittv sakura7/8821/4/2555 21:52:28
ขายไม้พร้อมยาง สองไม้ครับ ราคาดูเองแล้วกันครับ kase29/16331/4/2555 20:22:27
อยากหา Nittaku SEPTEAR FL ราคาเยาว์ ping-man5/8451/4/2555 16:39:13
gergery , yasaka max 3D มือ 2 สภาพดี siva7/9251/4/2555 13:37:47
ต้้้องการยาง BARACUDA Big Slam หน้าดํา siva11/11241/4/2555 13:33:37
ขายยาง2รายการ นะจ๊ะ10/12841/4/2555 12:27:29
April Full วันนี้คุณได้เจอมุขของใครแล้วหรือยัง Nobita12/12051/4/2555 9:32:31
Sale ยาง TG 64 สีดำ 2.1 mm ธารา12/13131/4/2555 2:20:32
^@^ รับ DHS Neo Hurricane III สีดำ & เม็ดยาวสีแดงครับ ^@^ sardius133/62731/3/2555 23:48:01
ปรับราคาถูกสุดๆรองเท้า li-ning เพียง1200บาท มีเบอร์ 39 เท่านั้น(ขนาดเทียบกับนันยาง) สรยุทธ10/113631/3/2555 22:35:37
อยากแลก+ขาย สรยุทธ16/138031/3/2555 22:35:27
ตามหา Butterfly ADOLESCEN มือสองครับ PSC000/91131/3/2555 22:24:23
ผมอยากรู้ว่าไม้ปิง Gergely21 ราคาเท่าไหร่หราครับ boll1/74531/3/2555 21:08:18
ความเลื่อนไหว ละครเรื่องลูกไม้ ที่เกี่ยวกับปิงปอง คลีนิคปิงปอง29/244431/3/2555 20:56:24
ชาวใต้ หาดใหญ่ พื้นที่ใกล้เคียง ช่วยกันกน่อย ครับ ขี้โม้2/70031/3/2555 17:05:57
ขายยางแผ่นสี่เหลี่ยม Tenergy 05 สีดำ และ Tenergy 05 สีแดง skbird5/93731/3/2555 14:43:11
ขายไม้ BUT 1 อัน ธารา10/184931/3/2555 14:16:51
สอบถามนิดนึงครับ ถ้าตัดยางแล้วตราITTF แหว่งหรือหายไป ผิดกฎไรปล่าครับ ++++ คนไม้จีน12/93331/3/2555 11:04:36
ขายไม้ Kumpuru cabon+T05 ดำ watsant36/163931/3/2555 10:27:22
รับไม้ Petr Korbel St ครับ Rainbow2/69231/3/2555 8:35:19
รับไม้คาร์บอนจีนครับ ยี่ห้ออะไรก็ได้ newthai16/117831/3/2555 8:23:45
แลกกับไม้อะไรได้บ้างครับ Rainbow5/77131/3/2555 0:49:19
ขายยางสภาพ 95% ครับ อยากเปลื่ยนยางใหม่เล่นบ้าง tewza79/247530/3/2555 23:36:34
ถึงพี่ศิวาครับ หุ่น 5ตัวรวมร่าง tewza7/80730/3/2555 23:26:19
รับไม้ Timo Boll ALC ST ครับ Rainbow2/88530/3/2555 23:06:12
ขายSchlager off+ กับ SARDIUS หรือแลกพวก TIMO BALL ก็ได้ครับลงรูปด้วยนะ tewza31/130030/3/2555 21:33:01
ที่จังหวัด ตาก มีที่ตีปิงปองไหมครับ แมวตกมัน16/171530/3/2555 18:39:38
ต้องการไม้ปิงปองดีๆ ราคาไม่เจ็บ mAnsOnZ5/88730/3/2555 17:28:13
ขายรองเท้าเทพๆ 2 คู่ Asics และ Mizuno WaveTornado 6 ไม่แพง somsak197117/176530/3/2555 16:25:31
<< Sale ยาง Xiom 3 แผ่น TG 05 1 แผ่น ราคาย่อมเยา >> interfear13/118730/3/2555 16:19:15
schlager light FL ขอแลกยางครับ TTF_THA2/64730/3/2555 15:33:01
รับ Timo Boll ALC ST !! carbonz0/64030/3/2555 14:06:37
ขาย JOOLA CHEN WEI XING FL วสวัส9/130830/3/2555 12:32:04
ท่านใดลองใช้ booster เเล้วคับ ใช้เเล้วเเรงมากไหมคับ gtgt1/79930/3/2555 12:17:46
รบกวนสอบถามผู้รู้เรื่องด้ามไม้ปิงปอง Timo Back4/94330/3/2555 10:25:57
ขายไม้ปิงปอง 3ไม้ครับ กรคุง16/137630/3/2555 10:04:25
ขายไม้เปล่า 2 อัน 2000 บาท huawen15/127530/3/2555 9:45:27
รับไม้ Palio a2 titanium newthai3/58930/3/2555 9:44:15
ขายไม้ avalox J-ARAMID (ARAMID-CARBON) จอมโจรคิด13/110030/3/2555 3:00:45
รับไม้ PRIMORAC CARBON ST คับ Rainbow1/60630/3/2555 2:21:46
ไม่ทราบว่า มีท่านใดเคยใช้ Ludeack Fleet ใหมครับ kase1/65829/3/2555 20:30:06
สาวกstigaแนะนำไม้หน่อยครับ เอ๋สมุย11/102429/3/2555 19:30:15
2 ไม้แลก 1 ไม้ Jojoe9923/106829/3/2555 18:45:10
รับ T05 แดง T05FX ดำ ThEMaT5/81129/3/2555 17:20:09
^0^ รับยาง ราคาย่อม ^0^ sardius130/55429/3/2555 17:16:30
เปิดสอนปิงปองช่วงปิดเทอมโดยสโมสร YASAKA หมูกรอบ13/236729/3/2555 16:53:19
ขาย H3 nation แผ่นสี่เหลี่ยม 1500-บาท รวมส่งลงทะเบียนธรรมดา PUMRAPEE22/117329/3/2555 14:36:31
ปล่อยpetr korbel st เอ๋สมุย3/81529/3/2555 13:20:40
schlager st แลก FL คนตรัง13/85829/3/2555 13:18:55
สอบถามการเบิร์นยาง Tabmini0/94129/3/2555 13:14:16
31 มี.ค. และ 1 เม.ย. Galaxy cup ที่ม.ธนฯ หยวนซียวเจี๋ย+20/137729/3/2555 11:40:55
ตั้งรับ DHS-PG7 คับ Nname3/79429/3/2555 11:22:55
รับไม่ timoball w 7 ครับ ThEMaT0/52929/3/2555 10:58:52
รับซื้อ ไม้ Timo Boll W5 thedevilvirus6/98829/3/2555 10:16:36
อยากได้ Sadius สภาพดีไว้ใช้ครับ เสนอมาเลยครับ dole6/88429/3/2555 8:43:34
ขาย ยาง buterfly ternagy 05 สีดำ 1300 บาท panther4/77329/3/2555 6:39:32
ได้ไม้ SARDIUS แล้วครับพี่ ศิวา เอามาโชว์ให้ดูครับ+W.Schlager-FL off+ tewza21/83428/3/2555 21:18:41
ตั้งรับ DHS-PG7 คับ Nname0/54428/3/2555 20:04:08
ร้านปิงปองอินเตอร์ ขอเชิญร่วมแข่งขันรายการ "ดาวรุ่ง DONIC" 4 อันดับสุดท้ายได้ร่วมแข่งขัน THAILAND Junior & Cadet ที่พัทยา Webmaster5/89728/3/2555 18:20:27
โปรโมชั่น ยางคอนเนโล raser ,lider 1350 บาท panther2/70728/3/2555 18:05:16
ขายยางมือ1รุ่น ALMANA Sound สีแดงราคา1390 สรยุทธ5/76628/3/2555 16:38:42
ขายหรือแลก Tenor ด้าม FL AvaloxP70042/193228/3/2555 16:37:33
เปิดขายอีกครั้ง Super Balsa2 มาเพคคู่พร้อมราคาสุดพิเศษ มือรับ24/98628/3/2555 16:35:05
ขอขายไม้ Butterfly Sardius สภาพ 90% ตีไม่ถึงเดือน darfie24/156128/3/2555 14:51:24
ขายยาง Tg 05 สภาพสวย นายขาหมู7/97728/3/2555 12:25:24
โปร..สุดคุ้มต้อนรับเปิดเทอม..กับJUN..FL nimnim15/191528/3/2555 12:02:42
Palio Thor's peter5/112628/3/2555 10:15:37
ขายไม้บัตตูดผีเสื้อดำ (ของใหม่ 500 ถ้วน!!!!!) Timo Back17/97528/3/2555 10:09:15
ขายไม้ JOOLA KOOLและDONIC EPOX CARBOTEC vhano21/131228/3/2555 9:54:23
รับแก้ไขจุดบกพร่องและปัญหาการเล่นต่างๆ คลีนิคปิงปอง502/2657128/3/2555 9:44:30
ขายไม้ W.Schlager Carbon ด่วน!!!! lOLITE_NEO6/99828/3/2555 9:10:10
ยางตัวใหม่ yasaka TONZAZA4/91228/3/2555 8:27:59
จีน vs สวีเดน ตอนนี้ 18.30 ทาง ittv sakura4/81928/3/2555 7:28:10
ขาย juice kiso hinoki ของใหม่ panther1/84828/3/2555 1:18:10
ขาย tenergy แผ่นสี่เหลี่ยมคับ กับตัน7/125828/3/2555 0:48:42
ขายยาง Andro Hexer Powerspong แดง/Roxxon 330 ดำ นายธนพล12/118128/3/2555 0:07:39
สอบถามหน่อยครับ อันนี้มันไม้รุ่นอะไรครับมีแบบนี้ด้วยหรอ พรวศิน22/127427/3/2555 23:02:24
มี Stiga Hybrid ST อยากแลกกับ.......... coffe200116/87827/3/2555 22:55:23
ขายเครื่องยิงลูกปิงปอง Newgy 2040 AVONNI9/164727/3/2555 22:08:52
ต้องการนำ รองเท้า Butterfly รุ่น WTS-2 เบอร์ 41 แลกกับ รองเท้า เบอร์ 42 supernamax3/112427/3/2555 21:50:27
สวัสดีครับ จะสอบถาม เรื่อง การลงรูป ครับ ว่าใช้เว๊ปฝากรูป เว๊ปไหน ครับ ถึงจะ supernamax0/63627/3/2555 21:25:10
ขายไม้ สติก้า ไฮเปอร์เทค ซีอาร์ สภาพ 1ชม. ถูกๆไปเลย Timo Back9/97427/3/2555 21:20:40
ขายไม้ตูดผีเสื้อ ราคาถูก!!!! Timo Back16/104727/3/2555 20:34:58
ท่านใดมี Rutis จะปล่อยบ้างครับ kase0/59327/3/2555 20:06:46
Sale < nittaku septear st // timo spirit st // omega4 pro> interfear21/124727/3/2555 19:39:29
รับจ้างขัดไม้ปิงปอง swat122213/89827/3/2555 15:57:43
รับไม้พร้อมยางราคาไม่เกิน 500 บาท ให้น้องที่ทำงานครับ watsant29/112627/3/2555 15:37:33
ขาย Butterfly Kumpuru cabon _FL (ของใหม่ยังไม่ได้ใช้ครับ) Fighter10/108527/3/2555 15:08:07
ขาย TG05 ดำ bussy2/78727/3/2555 15:04:45
รับยางดำ-แดง ขอฟองน้ำยุโรป-ญี่ปุ่น ครับ บอ รูป-ขนาด-ราคาด้วยครับ tewza2/61227/3/2555 14:29:30
ขอคำแนะนำยางสำหรับ Iolite หน่อยจ๊า pongmusic4/65827/3/2555 14:25:01
WOLD TEAM 2012 IN DORTMUND GERMANY ขี้โม้1/91727/3/2555 14:18:15
ขายไม้ DONIC EPOX TOPSPEED off+ ( พร้อมกล่อง ) siva3/118327/3/2555 14:15:02
น้องฝากขาย Joola ROSSI Force ราคาย่อมเยามากๆครับ interfear14/126727/3/2555 13:54:39
S.Sadius มือ 1 รุ่นน้องฟากขาย carbonz2/88527/3/2555 13:49:43
ขายไม้ Butt Bazelart FL +UP กระทู้ขาย sriver EL max ดำ กับ DHS Memo III ดำ เอาอยู่11/96227/3/2555 13:48:18
ฟองน้ำสีดำแข่งขันได้มั๊ยครับ หมึกไข่9/94227/3/2555 13:46:07
!!!!!!!!!!!!!!!Yasaka Sweeper ST!!!!!!!!!!!!!!!!! waldner5/92827/3/2555 12:49:09
Sadius แต่ละรุ่น เด้งไม่เท่ากัน จริงหรือ gizzly3/78527/3/2555 11:30:21
ขายถูก ยาง Stiga Innova Ultra Light time0/67627/3/2555 11:21:29
รูป Timo Boll W7 + ยาง สำหรับคุณ Swat 12221 ครับ Nobita5/99827/3/2555 9:47:23
ขายเสื้อเหมาๆ6ตัว1000บาท+ส่งEmsฟรี สรยุทธ11/169127/3/2555 9:44:10
รับ Tg 05 มือ 2 ว่ามาครับ gizzly12/93527/3/2555 9:41:44
ขายไม้คาร์บอน บัต พร้อมยางราคาถูก Timo Back5/89727/3/2555 8:38:46
มีใครอยากได้ TIMO BOLL W5 AND DONIC BARACUDA RED BIGSLAM maze15/137327/3/2555 0:22:45
ขอซื้อไม้ยาซาก้ารุ่นนี้หน่อยครับ YASAKA EXTRA 3D JEAN-PHILIPPE GATIEN Timo Back5/120927/3/2555 0:02:48
อยากได้ยาง anti ของค่าย dr เด็กดี5/64826/3/2555 23:33:55
อยากได้ไม้รับ+ยาง งบ 1000 พอมีไหมครับ tewza9/74826/3/2555 22:48:42
รบกวนสอบถามหน่อยคับว่า"ซอยวัชรพล"มีที่ตีปิงปองไม๊คับ ต้อง3/81426/3/2555 20:44:50
รับซื้อ ไม้ Timo Boll W5 thedevilvirus0/50226/3/2555 18:52:17
ปิงปองแบบบ้านๆ ในจีน Pimple Lover17/168826/3/2555 17:36:32
อยากขายซาเดียสป้าบสั้นครับ สภาพดี cadetlog428/104226/3/2555 17:21:11
จะไปอบรมที่บางเขน หาที่เล่น ม.เกษตรบางเขน หรือใกล้เคียงครับ cskoe4/70126/3/2555 16:07:16
ขออนุญาติครับ อยากตีปิงปองแถวบางมด synvia1/59126/3/2555 15:59:19
รับไม้ป่าว5-7ชั้นลองเสนอมานะคับ Rainbow9/88726/3/2555 15:52:33
รับยาง Vega Asia Max Red / DHS H3 NEO Black มือ1-2 ก็ได้ครับ Rainbow3/58226/3/2555 15:04:55
ต้องการไม้ Joola Chen defender สภาพสวยมาใช้เองครับ หยวนซียวเจี๋ย+10/104726/3/2555 14:18:52
รับยางแดง เด้งน้อยสปินเยอะๆ หน้าไม้ W.Schlger off+ tewza4/65426/3/2555 14:18:07
ภาพการแข่งขัน ____Nara Cup ครั้งที่ 1____24 มี.ค 2555 Lov_TT91/123926/3/2555 13:36:22
หา Butterfly MAZUNOV FL ให้น้องที่ทำงานสักอันราคากันเองหน่อยครับ titanium5/119926/3/2555 13:12:35
รับยางด้านแดง 90+\\\\\\\ ด่วน goodhodkod16/79326/3/2555 13:04:45
รับ ยาง "สีแดง" ญี่ปุ่น เยอรมัน 2 แผ่น งบ 1,000.- บาท cs-man4/73726/3/2555 13:01:56
ขายไม้ DONIC BLACK DEVIL CB off+ ( พร้อมกล่อง ) siva9/115026/3/2555 12:04:36
S.Donic Carbo System Off+ ST 2,000 EMS Rainbow9/115426/3/2555 11:36:50
ขายยาง Palio Blitz สีแดง สภาพ90+ หลังม่านพิรุณ11/104426/3/2555 10:50:51
ไม้ carbon ตัวไหน feel คล้ายๆ ไม้ Primorac carbon บ้างครับ power spin6/122926/3/2555 10:45:29
รับ omega 4 pro แดง 90+ goodhodkod5/73626/3/2555 10:02:31
ตามหา timo boll ZLC ด้ามตรง นายขาหมู1/72526/3/2555 9:45:01
VDO เมื่อฝรั่งมาเยือนเซี่ยงไฮ้สปอร์ต waros6/147126/3/2555 9:39:55
ตัดใจขาย ไม้ amultart ครับ พรพจน์11/161826/3/2555 9:32:39
ขายไม้ STIGA TITANIUM 5.4 WRB off+ siva5/141126/3/2555 8:22:15
มาดู ประวัติและการฝึกซ้อมของ แชมป์ชายเดี่ยว คนล่าสุด ผู้ที่ดับความหวัง มัสุทานิ จุน ครับ ขี้โม้8/131426/3/2555 1:28:41
ขายยาง BOOST TS , CALIBRA LT มือ1 12gggg2/75325/3/2555 22:08:15
ขายไม้ allround classic ตัวเก่า 800 บาท เด็กดี0/56225/3/2555 21:34:05
ขาย Rapid Tibhar ราคาถูกครับ club645/79025/3/2555 21:28:56
รบกวนพี่ๆเพื่อนๆทุกคนหน่อยครับ tibhar_man12/127225/3/2555 18:33:38
ขายไม้ TimoBall Spirit + ยาง ครับ chat vios25/160725/3/2555 15:37:32
ถึึึง Webmaster siva1/66525/3/2555 12:51:57
^0^ แวะมาคุยกันเรื่องตูดผีเสื้อดำครับ ^0^ sardius134/90725/3/2555 12:47:48
ขายไม้ปิงปอง หลายไม้ครับ chang_pkp33/301625/3/2555 11:28:09
ขายไม้ Carbon ของ TIBHAR analysiz8/86924/3/2555 22:50:02
ITTF WOLD HOPE WEEK 2012 ขี้โม้3/83424/3/2555 22:09:36
ท่านใดมีวิธีลอกกาวและวิธีทำไห้ยางปิงปองหด และขยาย บ้างครับ kridtipong0/74124/3/2555 21:19:00
Review ตามภาษาคนไร้ฝีมือ Nobita7/124424/3/2555 18:49:54
ต้องการแลกไม้ 1 อัน ด่วน!!! coffee guide5/104224/3/2555 18:36:37
ขายไม้ GEWO รุ่น ZOOM PRO Timo Back3/81924/3/2555 14:55:28
อยากแลก+ขาย สรยุทธ2/75724/3/2555 11:44:20
Page :  1  2  3  4  5  6  7  8  9  10  11  12  13  14  15  16  17  18  19  20  21  22  23  24  25  26  27  28  29  30  31  32  33  34  35  36  37  38  39  40  41  42  43  44  45  46  47  48  49  50  51  52  53  54  55  56  57  58  59  60  61  62  63  64  65  66  67  68  69  70  71  72  73  74  75  76  77  78  79  80  81  82  83  84  85  86  87  88  89  90  91  92  93  94  95  96  97  98  99  100  101  102  103  104  105  106  107  108  109  110  111  112  113  114  115  116  117  118  119  120  121  122  123  124  125  126  127  128  129  130  131  132  133  134  135  136  137  138  139  140  141  142  143  144  145  146  147  148  149  150  151  152  153  154  155  156  157  158  159  160  161  162  163  164  165  166  167  168  169  170  171  172  173  174  175  176  177  178  179  180  181  182  183  184  185  186  187  188  189  190  191  192  193  194  195  196  197  198  199  200  201 
[ First ] [<< back ] [ next>> ] [ Last ]  
VIP SPONSOR

 

ห้ามอย่านำสินค้าหนีภาษี - สินค้าหิ้วเข้ามาเอง - สินค้าปลอม มาจำหน่ายในเวปนี้
 
© 2020 All Rights Reserved
Powered by
ThaiWebWizard.com